sat.trackr.live / text

‹ back to catalog

SHIYAN-30 04

NORAD 68140 · 2026-048B

PAYLOAD ACTIVE UNKNOWN

§ Identity

Operator
Country
PRC
Launch date
2026-03-12
Launch site
XICLF
Launch vehicle
Mass (kg)
RCS (m²)

External: N2YO · Heavens-Above · Gunter

§ Orbital elements

Epoch: 2026-09-19T22:08:13.981920Z

Period
96.52 min
Inclination
34.9913°
Eccentricity
0.0001628
Mean motion
14.91962798 rev/d
Perigee alt
590.7 km
Apogee alt
593.0 km
Semi-major
6,970.0 km
B*
1.1539e-4
RAAN
60.0607°
Arg perigee
105.5323°
Mean anomaly
254.5562°
Rev number
2,852

§ Raw data

SHIYAN-30 041 68140U 26048B   26262.92238405  .00001164  00000+0  11539-3 0  99932 68140  34.9913  60.0607 0001628 105.5323 254.5562 14.91962798 28527

JSON: /api/v1/satellites/68140 · /tle

For live sub-satellite position, see the globe view (requires WebGL).

§ Visibility from observer

Set your observer location to see the next 7 days of passes ≥ 10°. The values pass through the URL so the page stays shareable.

No JS? Fill the form by hand. The geolocation button needs JavaScript.